Temperature
19 18 18 18 18 19 19 18 18 18 19 19 19 19 19 19 19 19 18 18 18 18 18 18 17 17 17 17 17 17 17 17 16 16 16 16 16 16 16 16 16 16 16
18 18 18 19 19 19 19 19 19 19 19 19 19 19 19 19 18 18 18 18 18 18 18 18 17 17 17 17 17 17 17 16 16 16 16 16 16 16 16 16 16 16 16
18 18 18 18 19 19 19 19 19 19 19 19 19 19 18 18 18 18 18 18 18 18 18 17 17 17 17 17 17 16 16 16 16 16 16 16 16 16 16 16 16 15 15
18 19 18 18 19 19 19 19 19 19 19 19 18 18 18 18 18 18 18 18 18 17 17 17 17 17 17 17 17 16 16 16 16 16 16 16 16 16 16 16 15 15 15
18 18 18 19 19 19 18 19 19 18 19 19 18 18 18 18 18 18 18 17 17 17 17 17 17 17 17 17 16 16 16 16 16 16 16 16 16 16 16 15 15 15 15
18 18 18 18 19 18 18 18 18 18 18 18 18 18 18 18 18 18 18 17 17 17 17 17 17 17 16 16 16 16 16 16 16 16 16 16 16 15 15 15 15 15 15
18 18 18 18 18 18 18 18 18 18 18 18 18 18 18 18 18 18 18 17 17 17 17 17 17 16 16 16 16 16 16 16 16 16 16 16 15 15 15 15 15 15 15
18 18 18 18 18 18 18 18 18 18 18 18 18 18 18 18 18 17 17 17 17 17 17 16 16 16 16 16 16 16 16 16 16 15 15 15 15 15 15 15 15 15 15
18 18 18 18 18 18 18 18 18 18 18 18 18 18 18 17 17 17 17 17 17 16 16 16 16 16 16 15 15 15 15 15 15 15 15 15 15 15 15 15 15 14 14
18 18 18 18 18 18 18 18 18 18 18 18 18 18 18 18 17 16 16 16 16 16 16 16 16 15 15 15 15 15 15 15 15 15 15 15 15 14 14 14 14 14 14
18 18 18 18 18 18 18 18 18 18 18 18 18 18 18 17 17 17 16 16 16 16 15 15 15 15 15 15 15 15 15 15 15 15 14 14 14 14 14 14 14 14 14
19 18 18 18 18 18 18 18 18 18 18 18 18 17 17 17 17 17 16 16 15 15 15 15 15 15 14 15 15 15 15 14 14 14 14 14 14 14 14 14 14 14 14
19 18 18 18 18 18 18 18 18 18 17 17 17 17 17 17 17 17 17 16 15 15 14 14 14 14 14 14 14 14 14 14 14 14 14 14 14 14 13 13 13 13 13
18 18 18 18 18 18 17 17 17 17 17 17 17 17 17 17 17 17 16 16 15 14 14 14 14 14 14 14 14 14 14 14 14 14 14 13 13 13 13 13 13 13 13
18 18 18 18 18 18 17 17 17 17 17 17 17 17 17 16 16 16 16 16 16 15 14 14 13 13 14 14 13 13 13 13 13 13 13 13 13 13 13 13 12 12 12
19 18 18 18 18 17 17 17 17 17 17 17 17 16 16 16 16 16 16 16 16 16 14 14 13 13 13 13 13 13 13 13 13 13 13 13 13 12 12 12 12 12 12
18 18 18 18 17 17 17 17 17 17 17 16 16 16 16 16 16 16 16 16 15 15 15 14 13 13 13 13 13 13 13 13 12 12 12 12 12 12 12 12 12 11 11
18 18 18 17 17 17 17 17 16 16 16 16 16 16 16 16 15 15 15 15 15 15 15 14 13 13 12 12 12 12 12 12 12 12 12 12 12 12 11 11 11 11 11
18 18 18 17 17 17 17 16 16 16 16 16 16 16 16 15 15 15 15 15 15 15 15 14 13 13 12 12 12 12 12 12 11 11 11 11 11 11 11 11 11 11 11
18 18 17 17 17 17 16 16 16 16 15 15 15 15 15 15 15 15 15 15 15 14 14 14 13 12 12 12 12 12 11 11 11 11 11 11 11 11 11 11 11 10 10
18 18 17 17 17 16 16 16 15 15 15 15 15 15 15 15 15 15 15 15 15 14 14 13 13 12 12 12 12 11 11 11 11 11 11 11 11 11 10 10 10 10 10
18 17 17 17 16 16 16 16 15 15 15 15 15 15 15 15 15 14 14 14 14 14 14 13 13 12 12 12 12 11 11 11 10 10 11 10 10 10 10 10 10 10 10
17 17 17 16 16 16 16 16 15 15 15 14 14 14 14 14 14 14 14 14 14 13 14 14 13 13 12 12 12 11 11 11 11 11 11 10 10 10 10 10 10 10 10
17 17 16 16 16 16 16 16 15 15 15 14 14 14 14 14 14 14 13 13 13 13 13 13 13 13 12 12 12 12 11 11 11 11 11 10 10 10 10 10 10 10 10
17 16 16 16 16 16 16 15 15 15 14 14 14 14 14 14 14 13 13 13 13 13 13 12 12 12 12 12 12 11 11 11 11 10 10 10 10 10 10 10 10 10 9
17 16 16 16 16 16 16 15 15 15 14 14 14 14 14 14 13 13 13 13 13 12 12 12 12 12 12 12 11 11 11 11 11 10 10 10 10 10 10 10 10 10 10
Wind_Speed
2 2 1 0 1 3 3 2 1 1 1 1 2 1 1 2 6 9 12 16 15 13 12 11 10 9 9 8 8 8 7 7 7 7 7 7 8 8 8 7 7 7 7
2 2 1 1 1 1 1 1 1 1 0 0 0 1 1 2 4 8 11 13 14 14 13 12 11 10 10 10 10 10 9 8 7 7 7 7 7 8 8 8 7 7 8
2 1 1 1 1 1 1 0 1 1 2 2 1 1 1 2 2 5 8 10 11 12 12 12 11 11 11 10 10 10 10 9 9 8 8 7 7 7 7 7 6 7 7
2 1 1 1 1 1 1 1 1 1 1 0 1 1 1 2 2 4 5 7 9 9 11 11 11 11 10 10 9 9 8 9 8 8 8 8 8 8 7 6 6 6 6
3 2 1 0 1 1 1 2 1 0 1 1 1 1 1 1 2 2 3 4 6 8 8 10 10 9 9 9 9 8 8 8 7 7 7 8 8 8 7 7 7 7 6
2 2 1 1 1 1 1 1 0 0 1 1 2 1 1 1 2 1 2 3 4 6 7 8 8 8 8 8 8 8 8 8 7 7 7 7 7 7 8 8 7 7 6
1 1 1 0 1 1 1 1 1 1 2 1 0 0 0 1 2 2 1 2 3 4 6 7 6 6 6 6 6 7 7 6 6 6 6 6 6 5 6 6 6 6 6
1 2 1 1 1 1 1 1 1 1 2 1 1 1 0 0 1 1 2 2 2 4 4 6 6 6 5 5 5 5 5 5 6 5 4 4 4 5 5 5 5 5 4
1 1 1 1 2 1 1 2 1 2 2 2 1 1 1 1 1 2 2 3 3 3 3 4 6 6 7 7 6 5 5 4 4 5 5 4 4 4 4 3 3 3 3
2 1 1 1 2 1 1 2 0 2 2 2 2 2 1 1 2 1 1 2 4 4 3 3 5 6 6 7 7 7 6 6 5 5 5 5 4 4 4 3 2 1 1
1 0 0 0 1 1 1 2 1 1 2 2 2 2 2 2 2 2 2 2 2 2 2 3 4 6 7 7 7 8 8 7 6 6 5 5 5 5 4 4 5 6 5
1 1 1 1 1 1 1 2 2 1 1 2 2 2 2 2 2 2 2 3 2 1 2 3 3 5 7 7 7 9 9 9 8 7 7 6 7 7 7 8 8 8 7
2 1 1 1 1 1 0 1 1 2 2 2 2 2 2 2 1 2 4 3 2 1 2 2 3 5 7 8 8 10 10 10 9 9 9 9 8 8 9 9 10 10 9
2 2 2 2 2 2 2 2 1 1 1 2 2 2 2 1 0 2 3 3 3 2 2 2 3 5 7 8 9 10 10 12 12 11 11 11 11 10 10 10 10 10 11
2 2 2 2 2 1 1 1 1 1 2 2 2 2 2 1 1 0 2 4 3 3 2 2 2 3 7 8 9 10 11 12 12 13 13 12 11 11 11 10 11 11 10
3 2 1 2 1 1 2 1 1 1 1 1 1 2 2 1 1 0 1 2 2 3 3 2 2 4 6 8 11 13 12 13 13 13 13 13 12 11 11 11 11 11 11
2 2 1 1 1 1 2 2 1 2 2 2 1 2 1 1 1 0 1 2 2 4 5 3 4 4 5 6 8 10 11 11 11 12 13 12 12 11 11 11 11 10 10
3 2 2 1 1 2 2 2 2 2 2 2 2 2 2 2 2 1 1 2 3 4 6 7 5 4 4 5 5 6 9 10 10 11 12 11 11 11 11 10 10 10 9
3 2 2 1 1 1 2 2 2 2 2 2 3 3 3 3 3 2 2 3 3 5 6 7 6 4 4 4 5 5 6 7 10 10 11 10 10 10 9 9 9 9 8
3 2 2 2 1 2 3 3 2 2 3 3 3 4 4 4 3 3 3 3 4 5 6 7 7 5 4 4 4 4 5 4 5 8 9 9 9 9 8 8 7 7 7
4 3 3 3 2 3 3 4 2 2 2 3 3 4 5 6 7 5 4 4 4 4 5 6 6 5 5 4 4 3 5 4 4 4 4 5 7 6 6 6 6 6 7
4 4 4 4 3 4 7 8 5 3 2 2 3 3 5 6 7 8 9 7 5 4 4 4 5 6 5 5 4 4 4 4 3 3 3 3 6 4 6 7 7 8 8
5 5 4 4 5 6 7 6 6 2 3 3 3 2 3 6 5 5 5 5 6 6 5 3 4 4 5 5 4 4 3 3 3 4 3 3 3 4 6 8 11 10 10
5 5 4 5 5 5 5 4 3 1 2 3 3 3 5 5 4 3 3 4 4 4 4 3 3 3 4 3 3 4 4 3 3 3 4 2 3 3 5 8 13 13 12
5 5 5 5 5 5 4 3 1 1 2 3 3 3 3 5 5 4 3 3 4 4 6 8 8 7 7 6 5 2 2 3 3 3 3 2 3 3 3 4 11 14 13
6 5 5 5 5 5 5 4 2 2 2 3 3 3 4 5 5 3 2 2 3 2 4 5 5 5 5 5 5 3 2 2 2 2 3 3 3 2 2 3 6 11 11
Wind_Direction
113 112 86 93 185 169 182 204 193 149 146 179 205 154 81 69 119 128 146 162 164 169 174 177 180 183 185 187 190 192 193 194 196 197 202 207 208 207 207 211 214 213 216
113 123 165 214 260 158 150 167 151 126 157 150 284 95 144 120 121 136 149 167 174 177 182 185 188 189 193 198 202 203 203 204 205 207 211 213 215 217 218 221 226 226 226
124 160 204 196 232 205 145 167 220 172 199 204 197 187 135 121 132 133 148 163 177 186 192 195 196 198 203 206 210 210 210 210 211 213 214 214 216 219 223 224 232 232 226
158 233 248 222 242 235 192 216 243 192 239 204 212 213 146 132 157 146 152 160 165 177 193 199 198 200 202 200 200 200 199 202 203 208 215 218 221 220 217 220 227 224 222
190 224 237 236 269 288 273 256 121 217 235 213 231 195 163 159 158 152 133 154 153 152 166 181 186 194 199 198 196 195 196 199 202 204 209 216 220 219 217 219 218 217 217
206 240 217 201 224 256 283 296 325 220 255 242 261 141 153 168 146 137 155 144 136 146 156 161 172 187 193 198 200 201 204 207 208 209 212 216 220 222 218 215 216 222 223
234 241 304 208 219 248 270 276 279 240 227 211 230 318 195 167 124 108 123 113 106 124 131 138 150 156 166 188 197 202 202 201 201 201 208 213 215 208 208 213 215 219 224
263 246 218 263 228 236 279 272 267 276 268 218 197 199 244 283 73 92 94 96 97 97 103 126 129 136 141 145 155 183 194 189 187 182 177 185 190 193 195 197 201 208 214
207 312 309 302 285 247 239 251 240 252 259 260 220 200 207 197 109 50 83 101 100 91 84 89 101 110 117 117 127 150 165 171 171 168 164 167 166 164 165 167 185 207 221
202 227 276 298 302 299 272 277 166 270 254 262 257 239 225 151 158 138 61 75 78 74 68 75 81 87 102 102 102 110 128 133 135 143 153 151 149 149 147 155 154 144 164
185 176 344 22 312 327 332 319 332 293 268 271 263 248 240 208 193 182 177 136 82 67 78 84 88 87 99 107 105 108 114 117 119 120 127 131 132 129 125 121 106 98 97
150 117 104 46 360 8 348 339 314 313 308 296 283 262 243 218 203 190 176 158 134 105 83 87 97 93 96 101 106 101 106 108 107 108 107 107 108 107 102 99 94 91 89
129 107 65 46 23 357 344 6 319 335 340 312 299 295 272 248 218 167 155 159 151 151 116 85 92 99 98 100 104 100 98 102 102 103 104 103 102 101 100 96 89 83 78
88 83 81 67 45 28 17 8 2 336 350 312 323 334 316 317 309 164 166 154 152 161 136 120 90 97 100 103 107 103 98 102 102 104 105 103 101 98 97 95 92 88 81
126 83 81 76 68 64 26 8 29 23 356 337 352 358 334 330 339 42 163 171 168 164 152 132 113 100 107 110 116 110 106 105 104 103 102 101 100 98 97 96 97 92 87
82 93 72 65 56 54 45 38 42 37 18 14 11 7 339 340 22 93 144 174 174 155 141 128 126 134 123 118 117 115 113 107 102 103 102 103 101 99 96 96 97 94 89
134 136 111 78 62 61 55 37 46 59 50 41 20 27 5 343 346 37 139 131 122 126 131 126 114 122 114 112 120 126 121 111 106 108 108 107 105 102 99 99 99 97 93
154 149 136 117 56 68 73 58 33 49 56 54 44 34 10 14 25 30 95 120 124 125 136 137 135 133 127 133 138 139 129 123 118 118 117 114 111 107 105 103 101 99 96
139 129 121 107 49 57 81 71 53 39 54 61 57 51 37 42 37 46 78 97 118 124 130 139 146 146 143 150 143 135 129 128 131 130 126 123 121 118 115 111 108 105 103
139 133 118 99 70 65 68 64 64 55 56 68 66 63 53 55 43 41 83 87 113 124 133 141 145 149 146 154 145 145 142 141 134 138 132 134 133 129 126 126 124 121 120
143 135 117 101 88 93 73 56 43 84 70 76 81 83 76 79 67 61 77 77 99 121 135 140 144 145 149 158 165 161 146 143 134 141 143 147 145 144 146 148 146 143 138
141 135 129 121 108 89 70 55 40 55 75 78 90 100 117 106 91 83 81 80 85 114 133 142 147 157 165 171 166 165 154 158 161 166 161 166 160 163 162 165 169 167 164
151 144 140 124 107 95 85 71 50 45 79 82 88 98 102 98 96 91 90 84 74 75 97 124 140 158 161 167 170 164 158 162 161 167 161 177 167 169 168 174 177 177 177
158 155 148 135 126 122 107 88 44 70 106 111 102 89 94 99 88 89 108 100 94 77 73 87 104 116 128 133 152 164 163 157 149 159 165 185 179 184 171 169 182 185 187
165 164 155 149 143 136 140 127 69 158 134 122 110 97 102 106 89 67 108 120 117 119 97 94 98 114 123 128 129 133 162 166 174 182 181 188 188 181 179 176 190 195 197
170 171 165 162 156 153 164 164 176 201 158 148 134 116 103 111 116 79 97 114 124 123 122 123 116 128 142 153 165 176 183 199 191 182 183 187 193 180 195 183 182 192 203
Height
1549 1550 1550 1551 1552 1552 1553 1553 1554 1554 1555 1555 1556 1557 1557 1558 1558 1558 1558 1559 1560 1561 1561 1562 1563 1564 1565 1565 1566 1567 1568 1569 1570 1570 1571 1572 1573 1574 1575 1576 1576 1577 1578
1550 1550 1551 1551 1552 1553 1553 1554 1554 1554 1555 1555 1556 1556 1557 1558 1558 1558 1558 1559 1559 1560 1561 1561 1562 1563 1564 1564 1565 1566 1566 1567 1568 1569 1570 1571 1572 1573 1573 1574 1575 1575 1576
1550 1551 1551 1552 1552 1553 1553 1553 1554 1554 1554 1555 1555 1556 1556 1557 1558 1558 1558 1558 1558 1559 1559 1560 1561 1562 1562 1563 1564 1565 1565 1566 1567 1568 1569 1569 1570 1571 1571 1572 1573 1573 1574
1550 1550 1551 1551 1552 1552 1553 1553 1553 1553 1553 1554 1554 1555 1555 1556 1557 1557 1557 1557 1557 1558 1558 1559 1560 1560 1561 1561 1562 1563 1563 1564 1565 1566 1566 1567 1568 1568 1569 1570 1570 1571 1571
1549 1550 1550 1551 1551 1551 1552 1552 1552 1552 1552 1553 1553 1554 1554 1555 1555 1556 1556 1556 1556 1556 1556 1557 1557 1558 1559 1560 1560 1561 1561 1562 1562 1563 1564 1565 1565 1566 1566 1567 1568 1568 1569
1549 1549 1550 1550 1550 1550 1550 1551 1551 1551 1551 1552 1552 1552 1552 1553 1554 1554 1554 1555 1555 1555 1555 1555 1556 1556 1557 1557 1558 1559 1559 1560 1560 1560 1561 1562 1563 1563 1564 1565 1565 1566 1566
1548 1548 1549 1549 1549 1549 1549 1549 1549 1550 1550 1550 1550 1551 1551 1551 1552 1552 1552 1553 1553 1553 1554 1554 1554 1554 1555 1555 1556 1557 1557 1558 1558 1558 1559 1560 1560 1561 1561 1562 1562 1563 1563
1547 1547 1547 1547 1547 1547 1548 1548 1548 1548 1548 1548 1549 1549 1550 1551 1550 1550 1550 1551 1551 1552 1552 1552 1552 1552 1552 1553 1553 1554 1555 1555 1556 1556 1557 1557 1558 1558 1559 1559 1560 1560 1561
1546 1546 1546 1546 1546 1546 1546 1546 1546 1546 1546 1547 1547 1548 1548 1548 1549 1550 1549 1549 1550 1550 1551 1551 1551 1551 1551 1551 1551 1552 1552 1553 1554 1554 1555 1555 1556 1556 1556 1557 1557 1558 1558
1545 1545 1545 1544 1544 1544 1544 1544 1544 1544 1544 1544 1545 1545 1546 1546 1547 1547 1548 1548 1548 1549 1549 1549 1549 1549 1549 1549 1549 1550 1550 1551 1551 1552 1552 1553 1553 1553 1554 1554 1555 1555 1555
1543 1543 1543 1543 1543 1543 1543 1543 1542 1542 1542 1542 1542 1543 1543 1544 1544 1545 1546 1547 1547 1547 1547 1547 1547 1547 1547 1547 1548 1548 1548 1549 1549 1550 1550 1551 1551 1551 1552 1552 1552 1553 1552
1543 1543 1543 1542 1542 1542 1541 1541 1541 1541 1540 1540 1540 1541 1541 1541 1541 1542 1543 1544 1545 1546 1546 1546 1546 1546 1546 1546 1546 1547 1547 1547 1548 1548 1548 1549 1549 1549 1550 1550 1550 1551 1551
1542 1542 1542 1541 1541 1540 1540 1540 1539 1539 1538 1538 1538 1539 1539 1539 1539 1540 1540 1541 1542 1544 1544 1544 1545 1545 1546 1545 1546 1546 1546 1546 1546 1546 1547 1547 1548 1548 1549 1549 1549 1549 1549
1542 1542 1541 1540 1540 1539 1539 1539 1538 1537 1537 1537 1537 1536 1537 1537 1537 1537 1538 1538 1540 1542 1543 1543 1544 1545 1545 1545 1545 1545 1544 1544 1545 1545 1546 1546 1547 1547 1548 1548 1548 1548 1548
1541 1541 1540 1540 1539 1539 1538 1537 1537 1536 1536 1535 1535 1535 1535 1535 1535 1535 1536 1536 1538 1539 1541 1542 1543 1543 1544 1544 1544 1544 1544 1544 1544 1545 1545 1546 1547 1547 1547 1548 1548 1548 1548
1540 1539 1539 1539 1538 1538 1537 1536 1535 1534 1534 1534 1533 1533 1533 1533 1533 1534 1534 1535 1536 1536 1538 1539 1541 1542 1543 1543 1544 1544 1544 1544 1545 1545 1546 1546 1546 1547 1547 1548 1548 1548 1547
1538 1538 1538 1538 1537 1536 1535 1535 1534 1533 1533 1532 1532 1532 1531 1532 1532 1532 1532 1533 1534 1535 1535 1537 1539 1541 1542 1543 1543 1544 1544 1545 1545 1546 1546 1547 1547 1547 1547 1547 1547 1547 1547
1536 1536 1536 1536 1536 1535 1534 1533 1533 1532 1532 1531 1531 1530 1530 1530 1530 1531 1531 1532 1533 1533 1534 1535 1538 1540 1541 1542 1544 1544 1544 1545 1545 1546 1547 1547 1547 1547 1547 1548 1547 1547 1547
1535 1535 1535 1534 1534 1534 1533 1532 1532 1531 1531 1530 1530 1529 1529 1529 1529 1530 1530 1531 1532 1533 1534 1534 1536 1538 1540 1542 1543 1544 1545 1545 1546 1547 1547 1548 1548 1548 1548 1548 1547 1547 1547
1533 1533 1533 1532 1532 1532 1531 1531 1530 1530 1530 1530 1529 1529 1529 1529 1529 1529 1530 1530 1531 1532 1533 1534 1536 1538 1540 1541 1543 1543 1545 1546 1546 1547 1547 1548 1548 1548 1548 1548 1547 1547 1547
1532 1531 1531 1530 1530 1530 1530 1529 1529 1529 1529 1529 1529 1529 1529 1529 1529 1529 1530 1530 1531 1531 1532 1534 1535 1537 1539 1540 1542 1543 1544 1545 1546 1547 1547 1547 1547 1547 1547 1547 1547 1547 1547
1530 1530 1530 1529 1529 1529 1529 1529 1529 1528 1528 1528 1528 1529 1529 1529 1529 1530 1530 1530 1531 1531 1532 1533 1534 1536 1537 1539 1540 1542 1543 1544 1545 1546 1546 1547 1547 1546 1546 1547 1547 1547 1546
1528 1528 1528 1528 1528 1528 1528 1528 1528 1528 1528 1528 1528 1529 1529 1529 1530 1530 1530 1531 1531 1532 1533 1533 1534 1535 1536 1537 1539 1541 1542 1543 1543 1544 1545 1545 1546 1546 1546 1546 1546 1546 1546
1526 1526 1527 1527 1527 1527 1527 1527 1528 1528 1528 1528 1528 1528 1529 1529 1530 1530 1530 1531 1531 1532 1533 1533 1533 1534 1535 1536 1538 1539 1540 1541 1543 1543 1544 1544 1545 1545 1545 1545 1545 1545 1545
1523 1524 1525 1525 1526 1526 1526 1526 1527 1527 1528 1528 1529 1529 1529 1529 1529 1530 1530 1530 1531 1532 1532 1533 1533 1534 1535 1536 1537 1538 1539 1540 1540 1541 1542 1543 1543 1543 1544 1544 1544 1544 1544
1521 1522 1523 1523 1524 1525 1525 1525 1526 1526 1527 1527 1528 1529 1529 1529 1529 1529 1530 1530 1530 1531 1532 1532 1533 1534 1534 1535 1536 1537 1538 1538 1539 1540 1540 1541 1541 1542 1542 1542 1542 1542 1542